Tracking 31027 objects as of 19-Jul-2025
HD Live streaming from Space Station
objects crossing your sky now

OPS 9381 (GGTS)

Track OPS 9381 (GGTS) now!
OPS 9381 (GGTS) is classified as:


NORAD ID: 2207
Int'l Code: 1966-053A
Perigee: 33,649.5 km
Apogee: 33,860.8 km
Inclination: 8.0 °
Period: 1,333.2 minutes
Semi major axis: 40126 km
RCS: 0.8912 m2 (medium)
Launch date: June 16, 1966
Source: United States (US)
Launch site: AIR FORCE EASTERN TEST RANGE (AFETR)
Your satellite tracking list
STARLINK-30103
Track 1 satellite(s)




NASA's NSSDC Master Catalog

Two Line Element Set (TLE):
1 02207U 66053A   25199.24448427 -.00000103  00000-0  00000-0 0  9997
2 02207   8.0326  46.5066 0026334 225.2076 337.4899  1.08009568232356
Source of the keplerian elements: AFSPC